Liberty, KS

4:14 AM CDT on August 31, 2016 (GMT -0500)
Coffeyville Municipal

Weather History for KCFV - November, 2012

Change the Weather History Date:

Thursday, November 1, 2012

  Actual Average Record
Temperature  
Mean Temperature 57 °F -  
Max Temperature 78 °F 61 °F 78 °F (2012)
Min Temperature 37 °F 42 °F 25 °F (2014)
Degree Days  
Heating Degree Days 8    
Growing Degree Days 7 (Base 50)    
Moisture  
Dew Point 38 °F    
Average Humidity 61    
Maximum Humidity 89    
Minimum Humidity 26    
Precipitation  
Precipitation 0.00 in - - ()
Sea Level Pressure  
Sea Level Pressure 29.99 in    
Wind  
Wind Speed 1 mph (SSW)    
Max Wind Speed 7 mph    
Max Gust Speed -    
Visibility 9 miles    
Events      
Averages and records for this station are not official NWS values.
T = Trace of Precipitation, MM = Missing Value Source: NWS Daily Summary

Daily Weather History Graph

Daily Weather History Graph

Search for Another Location

Airport or City:

Trip Planner

Search our weather history database for the weather conditions in past years. The results will help you decide how hot, cold, wet, or windy it might be!

Date:

Astronomy

Nov. 01, 2012 Rise Set
Actual Time 7:47 AM CDT 6:24 PM CDT
Civil Twilight 7:20 AM CDT 6:51 PM CDT
Nautical Twilight 6:49 AM CDT 7:21 PM CDT
Astronomical Twilight 6:18 AM CDT 7:52 PM CDT
Moon 8:25 PM CDT (11/1) 10:17 AM CDT (11/1)
Length of Visible Light 11h 30m
Length of Day
10h 37m
Waning Gibbous, 93% of the Moon is Illuminated
Nov 1
Waning Gibbous
Nov 6
Last Quarter
Nov 13
New
Nov 20
First Quarter
Nov 28
Full

Hourly Weather History & Observations

Time (CDT) Temp. Dew Point Humidity Pressure Visibility Wind Dir Wind Speed Gust Speed Precip Events Conditions
12:03 AM 44.6 °F 35.6 °F 71% 30.04 in 4.0 mi Calm Calm - N/A   Haze
12:52 AM 44.1 °F 36.0 °F 73% 30.04 in 10.0 mi Calm Calm - N/A   Clear
1:52 AM 42.1 °F 36.0 °F 79% 30.04 in 10.0 mi Calm Calm - N/A   Clear
2:52 AM 39.9 °F 35.1 °F 83% 30.05 in 10.0 mi Calm Calm - N/A   Clear
3:52 AM 39.9 °F 36.0 °F 86% 30.04 in 10.0 mi Calm Calm - N/A   Clear
4:52 AM 37.9 °F 34.0 °F 86% 30.04 in 10.0 mi Calm Calm - N/A   Clear
5:09 AM 39.2 °F 35.6 °F 87% 30.02 in 10.0 mi Calm Calm - N/A   Partly Cloudy
5:52 AM 37.0 °F 34.0 °F 89% 30.03 in 10.0 mi Calm Calm - N/A   Clear
6:52 AM 37.9 °F 35.1 °F 89% 30.03 in 10.0 mi Calm Calm - N/A   Clear
7:52 AM 37.9 °F 34.0 °F 86% 30.03 in 7.0 mi Calm Calm - N/A   Clear
8:52 AM 43.0 °F 37.9 °F 82% 30.04 in 10.0 mi Calm Calm - N/A   Clear
9:52 AM 52.0 °F 41.0 °F 66% 30.04 in 5.0 mi Calm Calm - N/A   Haze
10:52 AM 60.1 °F 39.9 °F 47% 30.04 in 10.0 mi South 5.8 mph - N/A   Clear
11:52 AM 66.0 °F 39.9 °F 38% 30.03 in 10.0 mi South 5.8 mph - N/A   Clear
12:52 PM 70.0 °F 37.9 °F 31% 30.00 in 10.0 mi South 5.8 mph - N/A   Clear
1:52 PM 72.0 °F 39.0 °F 30% 29.97 in 10.0 mi Calm Calm - N/A   Clear
2:52 PM 75.0 °F 39.9 °F 28% 29.94 in 10.0 mi WSW 4.6 mph - N/A   Clear
3:52 PM 77.0 °F 39.9 °F 26% 29.93 in 10.0 mi Calm Calm - N/A   Clear
4:52 PM 77.0 °F 41.0 °F 28% 29.92 in 10.0 mi WSW 6.9 mph - N/A   Clear
5:52 PM 73.9 °F 41.0 °F 30% 29.92 in 10.0 mi Calm Calm - N/A   Clear
6:52 PM 66.9 °F 42.1 °F 40% 29.92 in 10.0 mi South 5.8 mph - N/A   Clear
7:52 PM 61.0 °F 42.1 °F 50% 29.93 in 10.0 mi South 5.8 mph - N/A   Clear
8:52 PM 59.0 °F 42.1 °F 53% 29.93 in 10.0 mi Calm Calm - N/A   Clear
9:52 PM 53.1 °F 43.0 °F 69% 29.94 in 10.0 mi Calm Calm - N/A   Clear
11:52 PM 48.0 °F 41.0 °F 77% 29.93 in 10.0 mi Calm Calm - N/A   Clear